Home   Weather   Petite Paris   Past weeks
Flag for Seychelles

Past Weather in Petite Paris, Seychelles — Yesterday and Last 2 Weeks

Now
86 °F

Passing clouds.


Feels Like: 99 °F
Forecast: 84 / 78 °F
Wind: 5 mph from East

Location: National Airport

Current Time: Jan 24, 2020 at 5:47:39 pm

Latest Report: Jan 24, 2020 at 5:00 pm


Visibility: N/A

Pressure: 29.80 "Hg

Humidity: 79%

Dew Point: 79 °F

Location of Petite ParisLocation

Past Weather in Petite Paris — Graph

°F

Petite Paris Temperature Yesterday

Maximum temperature yesterday: 90 °F (at 12:00 pm)
Minimum temperature yesterday: 84 °F (at 12:00 am)
Average temperature yesterday: 86 °F

High & Low Weather Summary for the Past Weeks

 TemperatureHumidityPressure
High90 °F (Jan 22, 1:00 pm)100% (Jan 11, 4:00 am)29.92 "Hg (Jan 11, 4:00 am)
Low75 °F (Jan 18, 6:00 am)66% (Jan 10, 12:00 pm)29.74 "Hg (Jan 21, 4:00 pm)
Average82 °F83%29.83 "Hg
* Reported Jan 9 4:00 pm — Jan 24 4:00 pm, Petite Paris. Weather by CustomWeather, © 2020

Note: Actual official high and low records may vary slightly from our data, if they occured in-between our weather recording intervals... More about our weather records

Petite Paris Weather History for the Previous 24 Hours

Scroll right to see more
 ConditionsComfort  
Time TempWeatherWind HumidityBarometerVisibility
4:00 pm
Fri, Jan 24
88 °FPassing clouds.6 mph75%29.80 "HgN/A
3:00 pm88 °FPassing clouds.6 mph75%29.80 "HgN/A
2:00 pm88 °FPassing clouds.6 mph75%29.83 "HgN/A
1:00 pm88 °FScattered clouds.7 mph79%29.86 "HgN/A
12:00 pm88 °FScattered clouds.8 mph75%29.89 "HgN/A
11:00 am88 °FPartly sunny.7 mph75%29.89 "HgN/A
10:00 am88 °FPartly sunny.7 mph79%29.92 "HgN/A
9:00 am88 °FScattered clouds.2 mph75%29.89 "HgN/A
8:00 am86 °FScattered clouds.3 mph79%29.89 "HgN/A
7:00 am84 °FPartly sunny.2 mph84%29.86 "HgN/A
6:00 am82 °FPassing clouds.No wind89%29.86 "HgN/A
5:00 am82 °FPassing clouds.1 mph89%29.83 "HgN/A
4:00 am82 °FPassing clouds.2 mph89%29.80 "HgN/A
3:00 am84 °FPassing clouds.2 mph84%29.80 "HgN/A
2:00 am84 °FPassing clouds.3 mph84%29.83 "HgN/A
1:00 am82 °FPassing clouds.2 mph89%29.86 "HgN/A
12:00 am84 °FPassing clouds.1 mph84%29.86 "HgN/A
11:00 pm
Thu, Jan 23
84 °FPassing clouds.2 mph84%29.89 "HgN/A
10:00 pm84 °FPassing clouds.1 mph84%29.89 "HgN/A
9:00 pm84 °FPassing clouds.2 mph84%29.86 "HgN/A
8:00 pm84 °FPassing clouds.1 mph84%29.83 "HgN/A
7:00 pm84 °FPassing clouds.3 mph84%29.83 "HgN/A
6:00 pm86 °FScattered clouds.2 mph79%29.80 "HgN/A
5:00 pm86 °FScattered clouds.6 mph79%29.77 "HgN/A
Weather by CustomWeather, © 2020

See weather overview

Advertising